Weather History for KCKC - April, 2013

Change the Weather History Date:

Wednesday, April 24, 2013

  Actual Average Record
Temperature  
Mean Temperature 29 °F -  
Max Temperature 39 °F 47 °F 57 °F (2003)
Min Temperature 19 °F 28 °F 15 °F (2015)
Degree Days  
Heating Degree Days 36    
Moisture  
Dew Point 14 °F    
Average Humidity 53    
Maximum Humidity 80    
Minimum Humidity 31    
Precipitation  
Precipitation 0.00 in - - ()
Sea Level Pressure  
Sea Level Pressure 29.86 in    
Wind  
Wind Speed 5 mph (SW)    
Max Wind Speed 12 mph    
Max Gust Speed 18 mph    
Visibility 10 miles    
Events      
Averages and records for this station are not official NWS values.
T = Trace of Precipitation, MM = Missing Value Source: NWS Daily Summary

Daily Weather History Graph

Daily Weather History Graph

Search for Another Location

Airport or City:

Trip Planner

Search our weather history database for the weather conditions in past years. The results will help you decide how hot, cold, wet, or windy it might be!

Date:

Astronomy

Apr. 24, 2013 Rise Set
Actual Time 5:55 AM CDT 8:04 PM CDT
Civil Twilight 5:21 AM CDT 8:38 PM CDT
Nautical Twilight 4:39 AM CDT 9:20 PM CDT
Astronomical Twilight 3:53 AM CDT 10:07 PM CDT
Moon 7:06 PM CDT 5:04 AM CDT
Length of Visible Light 15h 16m
Length of Day
14h 09m
Waxing Gibbous, 98% of the Moon is Illuminated
Apr 24
Waxing Gibbous
Apr 25
Full
May 2
Last Quarter
May 9
New
May 17
First Quarter

Hourly Weather History & Observations

Time (CDT) Temp. Windchill Dew Point Humidity Pressure Visibility Wind Dir Wind Speed Gust Speed Precip Events Conditions
12:13 AM 26.6 °F 20.0 °F 10.4 °F 51% 29.92 in 10.0 mi WNW 5.8 mph - N/A   Clear
12:33 AM 26.6 °F 21.2 °F 10.4 °F 51% 29.93 in 10.0 mi WNW 4.6 mph - N/A   Clear
12:53 AM 26.6 °F 21.2 °F 10.4 °F 51% 29.93 in 10.0 mi WNW 4.6 mph - N/A   Clear
1:14 AM 24.8 °F 20.5 °F 10.4 °F 54% 29.92 in 10.0 mi WNW 3.5 mph - N/A   Clear
1:34 AM 23.0 °F - 10.4 °F 59% 29.92 in 10.0 mi Calm Calm - N/A   Clear
1:53 AM 24.8 °F - 10.4 °F 54% 29.92 in 10.0 mi Calm Calm - N/A   Clear
2:14 AM 23.0 °F - 10.4 °F 59% 29.91 in 10.0 mi Calm Calm - N/A   Clear
2:34 AM 23.0 °F 18.4 °F 10.4 °F 59% 29.90 in 10.0 mi NW 3.5 mph - N/A   Clear
2:54 AM 21.2 °F 16.4 °F 8.6 °F 58% 29.90 in 10.0 mi WNW 3.5 mph - N/A   Clear
3:13 AM 21.2 °F - 10.4 °F 63% 29.90 in 10.0 mi Calm Calm - N/A   Clear
3:34 AM 19.4 °F 11.5 °F 10.4 °F 68% 29.90 in 10.0 mi West 5.8 mph - N/A   Clear
3:53 AM 23.0 °F 14.7 °F 8.6 °F 54% 29.90 in 10.0 mi West 6.9 mph - N/A   Clear
4:13 AM 23.0 °F 15.8 °F 8.6 °F 54% 29.90 in 10.0 mi WNW 5.8 mph - N/A   Clear
4:34 AM 23.0 °F 17.0 °F 8.6 °F 54% 29.90 in 10.0 mi WNW 4.6 mph - N/A   Clear
4:53 AM 23.0 °F 17.0 °F 10.4 °F 59% 29.89 in 10.0 mi WNW 4.6 mph - N/A   Clear
5:13 AM 21.2 °F 13.6 °F 10.4 °F 63% 29.90 in 10.0 mi WNW 5.8 mph - N/A   Clear
5:33 AM 21.2 °F - 10.4 °F 63% 29.89 in 10.0 mi Calm Calm - N/A   Clear
5:53 AM 21.2 °F 16.4 °F 10.4 °F 63% 29.89 in 10.0 mi NW 3.5 mph - N/A   Clear
6:13 AM 19.4 °F 11.5 °F 10.4 °F 68% 29.89 in 10.0 mi NW 5.8 mph - N/A   Clear
6:34 AM 21.2 °F 14.9 °F 10.4 °F 63% 29.88 in 10.0 mi NW 4.6 mph - N/A   Clear
6:53 AM 23.0 °F 18.4 °F 12.2 °F 63% 29.88 in 10.0 mi NNW 3.5 mph - N/A   Clear
7:14 AM 24.8 °F 20.5 °F 12.2 °F 59% 29.88 in 10.0 mi NW 3.5 mph - N/A   Clear
7:34 AM 26.6 °F - 12.2 °F 55% 29.88 in 10.0 mi Calm Calm - N/A   Clear
7:54 AM 28.4 °F 22.2 °F 12.2 °F 51% 29.88 in 10.0 mi NW 5.8 mph - N/A   Clear
8:13 AM 28.4 °F 23.3 °F 12.2 °F 51% 29.88 in 10.0 mi NW 4.6 mph - N/A   Clear
8:33 AM 32.0 °F 28.7 °F 12.2 °F 44% 29.88 in 10.0 mi NW 3.5 mph - N/A   Clear
8:54 AM 33.8 °F 30.8 °F 12.2 °F 41% 29.88 in 10.0 mi West 3.5 mph - N/A   Clear
9:14 AM 33.8 °F 29.6 °F 12.2 °F 41% 29.88 in 10.0 mi West 4.6 mph - N/A   Scattered Clouds
9:34 AM 33.8 °F 29.6 °F 12.2 °F 41% 29.87 in 10.0 mi SSW 4.6 mph - N/A   Scattered Clouds
9:54 AM 35.6 °F 30.7 °F 12.2 °F 38% 29.86 in 10.0 mi SSE 5.8 mph - N/A   Clear
10:13 AM 35.6 °F 29.9 °F 12.2 °F 38% 29.87 in 10.0 mi South 6.9 mph - N/A   Clear
10:34 AM 37.4 °F 33.8 °F 12.2 °F 36% 29.86 in 10.0 mi WSW 4.6 mph - N/A   Scattered Clouds
10:53 AM 37.4 °F 32.8 °F 12.2 °F 36% 29.86 in 10.0 mi South 5.8 mph - N/A   Mostly Cloudy
11:13 AM 37.4 °F 34.9 °F 12.2 °F 36% 29.86 in 10.0 mi SW 3.5 mph - N/A   Scattered Clouds
11:34 AM 37.4 °F - 12.2 °F 36% 29.85 in 10.0 mi Calm Calm - N/A   Mostly Cloudy
11:54 AM 39.2 °F 35.0 °F 12.2 °F 33% 29.85 in 10.0 mi SW 5.8 mph - N/A   Mostly Cloudy
12:13 PM 39.2 °F 33.6 °F 10.4 °F 31% 29.84 in 10.0 mi SSW 8.1 mph - N/A   Mostly Cloudy
12:33 PM 39.2 °F 33.6 °F 10.4 °F 31% 29.84 in 10.0 mi South 8.1 mph - N/A   Mostly Cloudy
12:53 PM 35.6 °F 28.6 °F 19.4 °F 52% 29.84 in 10.0 mi South 9.2 mph 17.3 mph N/A   Overcast
1:13 PM 37.4 °F 29.8 °F 19.4 °F 48% 29.83 in 10.0 mi SSW 11.5 mph - N/A   Mostly Cloudy
1:34 PM 37.4 °F 31.4 °F 17.6 °F 45% 29.83 in 10.0 mi South 8.1 mph - N/A   Mostly Cloudy
1:53 PM 39.2 °F 33.0 °F 19.4 °F 45% 29.83 in 10.0 mi South 9.2 mph - N/A   Mostly Cloudy
2:13 PM 37.4 °F 29.8 °F 17.6 °F 45% 29.83 in 10.0 mi SSE 11.5 mph 18.4 mph N/A   Mostly Cloudy
2:34 PM 37.4 °F 30.8 °F 17.6 °F 45% 29.83 in 10.0 mi South 9.2 mph - N/A   Scattered Clouds
2:54 PM 39.2 °F 32.0 °F 17.6 °F 42% 29.83 in 10.0 mi South 11.5 mph - N/A   Scattered Clouds
3:13 PM 37.4 °F 30.8 °F 17.6 °F 45% 29.82 in 10.0 mi South 9.2 mph - N/A   Mostly Cloudy
3:33 PM 37.4 °F 32.1 °F 17.6 °F 45% 29.82 in 10.0 mi South 6.9 mph - N/A   Scattered Clouds
3:54 PM 37.4 °F 30.8 °F 17.6 °F 45% 29.81 in 10.0 mi South 9.2 mph - N/A   Clear
4:13 PM 37.4 °F 31.4 °F 17.6 °F 45% 29.82 in 10.0 mi South 8.1 mph - N/A   Clear
4:33 PM 37.4 °F 32.1 °F 15.8 °F 41% 29.82 in 10.0 mi South 6.9 mph - N/A   Clear
4:54 PM 35.6 °F 29.2 °F 15.8 °F 44% 29.83 in 10.0 mi South 8.1 mph - N/A   Clear
5:13 PM 35.6 °F 28.6 °F 15.8 °F 44% 29.83 in 10.0 mi South 9.2 mph 17.3 mph N/A   Clear
5:34 PM 35.6 °F 31.7 °F 15.8 °F 44% 29.83 in 10.0 mi SSW 4.6 mph - N/A   Clear
5:53 PM 35.6 °F 30.7 °F 15.8 °F 44% 29.82 in 10.0 mi SSW 5.8 mph - N/A   Scattered Clouds
6:13 PM 35.6 °F 29.9 °F 15.8 °F 44% 29.82 in 10.0 mi South 6.9 mph - N/A   Scattered Clouds
6:33 PM 35.6 °F 29.9 °F 15.8 °F 44% 29.81 in 10.0 mi South 6.9 mph - N/A   Clear
6:54 PM 35.6 °F 29.2 °F 15.8 °F 44% 29.82 in 10.0 mi South 8.1 mph - N/A   Clear
7:13 PM 33.8 °F 27.7 °F 17.6 °F 52% 29.82 in 10.0 mi SSW 6.9 mph - N/A   Clear
7:33 PM 32.0 °F 26.4 °F 19.4 °F 60% 29.82 in 10.0 mi South 5.8 mph - N/A   Clear
7:54 PM 30.2 °F 25.4 °F 19.4 °F 64% 29.82 in 10.0 mi SSW 4.6 mph - N/A   Clear
8:13 PM 30.2 °F - 19.4 °F 64% 29.82 in 10.0 mi Calm Calm - N/A   Clear
8:34 PM 28.4 °F - 21.2 °F 74% 29.82 in 10.0 mi Calm Calm - N/A   Clear
8:54 PM 28.4 °F - 21.2 °F 74% 29.83 in 10.0 mi Calm Calm - N/A   Scattered Clouds
9:53 PM 28.4 °F - 21.2 °F 74% 29.84 in 10.0 mi Calm Calm - N/A   Mostly Cloudy
10:14 PM 28.4 °F - 21.2 °F 74% 29.85 in 10.0 mi Calm Calm - N/A   Overcast
10:33 PM 28.4 °F - 21.2 °F 74% 29.85 in 10.0 mi Calm Calm - N/A   Overcast
10:54 PM 28.4 °F - 23.0 °F 80% 29.86 in 10.0 mi Calm Calm - N/A   Overcast
11:13 PM 28.4 °F - 23.0 °F 80% 29.85 in 10.0 mi Calm Calm - N/A   Overcast
11:33 PM 28.4 °F 24.6 °F 21.2 °F 74% 29.85 in 10.0 mi NW 3.5 mph - N/A   Overcast
11:54 PM 30.2 °F 26.7 °F 19.4 °F 64% 29.86 in 10.0 mi NW 3.5 mph - N/A   Overcast